Bradford, PA

5:42 AM EST on December 11, 2019 (GMT -0500)
Bradford Regional

Weather History for KBFD - August, 2019

Change the Weather History Date:

Wednesday, August 14, 2019

  Actual Average Record
Temperature  
Mean Temperature 71 °F 64 °F  
Max Temperature 80 °F 76 °F 88 °F (2002)
Min Temperature 62 °F 53 °F 36 °F (1964)
Degree Days  
Heating Degree Days 0 1  
Month to date heating degree days 11 6  
Since 1 June heating degree days 145 215  
Since 1 July heating degree days 23 70  
Cooling Degree Days 6 2  
Month to date cooling degree days 33 28  
Year to date cooling degree days 223 152  
Since 1 June cooling degree days 216 142  
Growing Degree Days 21 (Base 50)    
Moisture  
Dew Point 62 °F    
Average Humidity 73    
Maximum Humidity 100    
Minimum Humidity 45    
Precipitation  
Precipitation 0.00 in 0.13 in 2.49 in (1994)
Month to date precipitation 1.77 1.86  
Year to date precipitation 29.74 27.70  
Sea Level Pressure  
Sea Level Pressure 29.90 in    
Wind  
Wind Speed 4 mph (NNE)    
Max Wind Speed 10 mph    
Max Gust Speed 13 mph    
Visibility 7 miles    
Events Fog    
T = Trace of Precipitation, MM = Missing Value Source: NWS Daily Summary

Daily Weather History Graph

Daily Weather History Graph

Search for Another Location

Airport or City:

Astronomy

Aug. 14, 2019 Rise Set
Actual Time 6:21 AM EDT 8:16 PM EDT
Civil Twilight 5:51 AM EDT 8:46 PM EDT
Nautical Twilight 5:14 AM EDT 9:22 PM EDT
Astronomical Twilight 4:34 AM EDT 10:02 PM EDT
Moon 8:10 PM EDT (8/14) 5:15 AM EDT (8/14)
Length of Visible Light 14h 54m
Length of Day
13h 54m
Waxing Gibbous, 99% of the Moon is Illuminated
Aug 14
Waxing Gibbous
Aug 15
Full
Aug 23
Last Quarter
Aug 30
New
Sep 5
First Quarter

Hourly Weather History & Observations

Time (EDT) Temp. Dew Point Humidity Pressure Visibility Wind Dir Wind Speed Gust Speed Precip Events Conditions
12:33 AM 66.9 °F 64.9 °F 93% 29.89 in 9.0 mi NNE 5.8 mph - N/A   Overcast
12:45 AM 66.9 °F 66.0 °F 97% 29.88 in 9.0 mi NE 4.6 mph - N/A   Overcast
12:53 AM 66.9 °F 66.0 °F 97% 29.84 in 9.0 mi ENE 4.6 mph - N/A   Overcast
1:53 AM 66.9 °F 64.9 °F 93% 29.84 in 8.0 mi ENE 3.5 mph - N/A   Overcast
2:28 AM 66.0 °F 64.9 °F 96% 29.88 in 8.0 mi NNW 3.5 mph - N/A   Overcast
2:53 AM 66.0 °F 64.9 °F 96% 29.83 in 6.0 mi Calm Calm - N/A   Overcast
3:41 AM 64.9 °F 64.0 °F 97% 29.88 in 1.2 mi Calm Calm - N/A   Mostly Cloudy
3:45 AM 64.0 °F 64.0 °F 100% 29.88 in 0.2 mi NNW 3.5 mph - N/A Fog Fog
3:53 AM 63.0 °F 63.0 °F 100% 29.84 in 0.2 mi Calm Calm - N/A Fog Fog
4:53 AM 64.0 °F 64.0 °F 100% 29.84 in 0.2 mi North 4.6 mph - N/A Fog Fog
5:51 AM 64.4 °F 64.4 °F 100% 29.90 in 0.5 mi North 5.8 mph - N/A Fog Fog
5:53 AM 64.0 °F 64.0 °F 100% 29.85 in 0.5 mi North 4.6 mph - N/A Fog Fog
6:18 AM 64.0 °F 64.0 °F 100% 29.91 in 2.5 mi North 3.5 mph - N/A   Overcast
6:29 AM 64.0 °F 64.0 °F 100% 29.92 in 4.0 mi North 3.5 mph - N/A   Overcast
6:53 AM 64.0 °F 64.0 °F 100% 29.88 in 4.0 mi North 3.5 mph - N/A   Overcast
7:02 AM 64.0 °F 64.0 °F 100% 29.92 in 4.0 mi Calm Calm - N/A   Mostly Cloudy
7:15 AM 64.0 °F 63.0 °F 96% 29.92 in 4.0 mi Calm Calm - N/A   Scattered Clouds
7:40 AM 64.0 °F 64.0 °F 100% 29.93 in 4.0 mi Calm Calm - N/A   Mostly Cloudy
7:53 AM 64.0 °F 64.0 °F 100% 29.90 in 4.0 mi Calm Calm - N/A   Overcast
8:26 AM 66.0 °F 64.0 °F 93% 29.95 in 7.0 mi NNW 4.6 mph - N/A   Overcast
8:53 AM 68.0 °F 64.0 °F 87% 29.91 in 10.0 mi NE 3.5 mph - N/A   Mostly Cloudy
9:53 AM 72.0 °F 61.0 °F 68% 29.91 in 10.0 mi NNE 3.5 mph - N/A   Overcast
10:53 AM 73.9 °F 57.9 °F 57% 29.91 in 10.0 mi NE 5.8 mph - N/A   Overcast
11:53 AM 75.9 °F 59.0 °F 56% 29.91 in 10.0 mi North 5.8 mph - N/A   Mostly Cloudy
12:53 PM 79.0 °F 55.9 °F 45% 29.91 in 10.0 mi Calm Calm - N/A   Mostly Cloudy
1:53 PM 77.0 °F 57.0 °F 50% 29.91 in 10.0 mi North 4.6 mph - N/A   Overcast
2:53 PM 79.0 °F 55.0 °F 44% 29.90 in 10.0 mi Calm Calm - N/A   Mostly Cloudy
3:53 PM 77.0 °F 57.9 °F 52% 29.91 in 10.0 mi North 5.8 mph - N/A   Mostly Cloudy
4:53 PM 78.1 °F 59.0 °F 52% 29.91 in 10.0 mi North 6.9 mph - N/A   Partly Cloudy
5:53 PM 77.0 °F 57.9 °F 52% 29.91 in 10.0 mi NE 3.5 mph - N/A   Mostly Cloudy
6:53 PM 73.9 °F 60.1 °F 62% 29.92 in 10.0 mi North 4.6 mph - N/A   Mostly Cloudy
7:53 PM 73.0 °F 62.1 °F 68% 29.92 in 10.0 mi North 6.9 mph - N/A   Overcast
8:53 PM 70.0 °F 61.0 °F 73% 29.94 in 10.0 mi NNE 4.6 mph - N/A   Overcast
9:53 PM 66.9 °F 61.0 °F 81% 29.96 in 10.0 mi NNE 4.6 mph - N/A   Clear
10:53 PM 64.9 °F 61.0 °F 87% 29.98 in 10.0 mi East 3.5 mph - N/A   Clear
11:53 PM 64.0 °F 60.1 °F 87% 29.98 in 10.0 mi NE 3.5 mph - N/A   Mostly Cloudy